NIMBUS 2 DEB, 40645

Orbit data source: Space-Track

NIMBUS 2 DEB, 40645 is space debris in SSO originally from a launch on Sun, 15 May 1966 UTC launched from the Air Force Western Test Range (AFWTR). Debris objects in space refer to the collection of defunct objects orbiting the Earth. Examples of debris include non-operational satellites, rocket bodies, and fragments generated from explosions, collisions, or faulty payload assembly.

Loading next visibility...
Identifier
40645, 1966-040BJ
Orbit
SSO
Country
Flag of USUS
Related business
Manufacturer
Unknown
Mission
Spacecraft
Bus & Motor
Unknown
Mass
Unknown
Launch date (UTC)
1966-05-15 (59 years ago)
Launch vehicle
Unknown
Launch site
Air Force Western Test Range (AFWTR)
Object type
Payload
Rocket body
Debris
Shape & HBR
Unknown shape, 0.1 m
Radar Cross Section
Small (<0.1 m²)

Expand to show TLE details & history
Last TLE update: 2 days ago

TLE from 2 days ago
0 NIMBUS 2 DEB
1 40645U 66040BJ  25285.91862239  .00002020  00000-0  35274-2 0  9994
2 40645 100.3976 153.1473 0049258  53.1894 307.3739 13.44304087509672
Epoch: 2025-10-12T22:02Z
TLE epoch observation values (Epoch: 2025-10-12T22:02:48.974Z)
Latitude
-0.00004°
Longitude
160.71439°
Altitude
1,073.813 km
Speed
7.326 km/s
True Right ascension
10h 12m 35s
True Declination
0° 00' 00"
Sunlit
Object was in daylight at epoch
Visualization orbit readout
Latitude
Unknown
Longitude
Unknown
Altitude
Unknown
Speed
Unknown
Apparent Right ascension
Unknown
Apparent Declination
Unknown
Sunlit
N/A
Visualization observer readout
Local Sidereal Time
04:40:17
Azimuth
Unknown
Elevation
Unknown
Doppler factor
Unknown
Orbital elements
Apogee altitude
1,127.424 km
Perigee altitude
1,053.845 km
Semi-major axis
7,468.772 km
Eccentricity
0.00493
Inclination
100.3976°
RAAN
153.1473°
Arg. of periapsis
53.1894°
True anomaly
306.92365°
Mean anomaly
307.3739°
Eccentric anomaly
307.14895°
Mean motion
3.36255 °/min
Orbital period
107.06 mins
BSTAR
0.0035274
Loading maneuver chart data...
Computing Atmospheric mass density...
Loading historical data...
Loading historical data...
Loading historical data...
Loading historical data...
Loading historical data...
Loading historical data...
Loading historical data...

Documentation

Showing up to 5 results
|